EHI
0 0 0 0 0 0 0 0 0 0 0 0 0 0 0 0 0 0 0 0 0 0 0 0 0 0 0 0 0 0 0 0 0 0 0 0 0 0 0 0 0 0 0 0
0 0 0 0 0 0 0 0 0 0 0 0 0 0 0 0 0 0 0 0 0 0 0 0 0 0 0 0 0 0 0 0 0 0 0 0 0 0 0 0 0 0 0 0
0 0 0 0 0 0 0 0 0 0 0 0 0 0 0 0 0 0 0 0 0 0 0 0 0 0 0 0 0 0 0 0 0 0 0 0 0 0 0 0 0 0 0 0
0 0 0 0 0 0 0 0 0 0 0 0 0 0 0 0 0 0 0 0 0 0 0 0 0 0 0 0 0 0 0 0 0 0 0 0 0 0 0 0 0 0 0 0
0 0 0 0 0 0 0 0 0 0 0 0 0 0 0 0 0 0 0 0 0 0 0 0 0 0 0 0 0 0 0 0 0 0 0 0 0 0 0 0 0 0 0 0
0 0 0 0 0 0 0 0 0 0 0 0 0 0 0 0 0 0 0 0 0 0 0 0 0 0 0 0 0 0 0 0 0 0 0 0 0 0 0 0 0 0 0 0
0 0 0 0 0 0 0 0 0 0 0 0 0 0 0 0 0 0 0 0 0 0 0 0 0 0 0 0 0 0 0 0 0 0 0 0 0 0 0 0 0 0 0 0
0 0 0 0 0 0 0 0 0 0 0 0 0 0 0 0 0 0 0 0 0 0 0 0 0 0 0 0 0 0 0 0 0 0 0 0 0 0 0 0 0 0 0 0
0 0 0 0 0 0 0 0 0 0 0 0 0 0 0 0 0 0 0 0 0 0 0 0 0 0 0 0 0 0 0 0 0 0 0 0 0 0 0 0 0 0 0 0
0 0 0 0 0 0 0 0 0 0 0 0 0 0 0 0 0 0 0 0 0 0 0 0 0 0 0 0 0 0 0 0 0 0 0 0 0 0 0 0 0 0 0 0
0 0 0 0 0 0 0 0 0 0 0 0 0 0 0 0 0 0 0 0 0 0 0 0 0 0 0 0 0 0 0 0 0 0 0 0 0 0 0 0 0 0 0 0
0 0 0 0 0 0 0 0 0 0 0 0 0 0 0 0 0 0 0 0 0 0 0 0 0 0 0 0 0 0 0 0 0 0 0 0 0 0 0 0 0 0 0 0
0 0 0 0 0 0 0 0 0 0 0 0 0 0 0 0 0 0 0 0 0 0 0 0 0 0 0 0 0 0 0 0 0 0 0 0 0 0 0 0 0 0 0 0
0 0 0 0 0 0 0 0 0 0 0 0 0 0 0 0 0 0 0 0 0 0 0 0 0 0 0 0 0 0 0 0 0 0 0 0 0 0 0 0 0 0 0 0
0 0 0 0 0 0 0 0 0 0 0 0 0 0 0 0 0 0 0 0 0 0 0 0 0 0 0 0 0 0 0 0 0 0 0 0 0 0 0 0 0 0 0 0
0 0 0 0 0 0 0 0 0 0 0 0 0 0 0 0 0 0 0 0 0 0 0 0 0 0 0 0 0 0 0 0 0 0 0 0 0 0 0 0 0 0 0 0
0 0 0 0 0 0 0 0 0 0 0 0 0 0 0 0 0 0 0 0 0 0 0 0 0 0 0 0 0 0 0 0 0 0 0 0 0 0 0 0 0 0 0 0
0 0 0 0 0 0 0 0 0 0 0 0 0 0 0 0 0 0 0 0 0 0 0 0 0 0 0 0 0 0 0 0 0 0 0 0 0 0 0 0 0 0 0 0
0 0 0 0 0 0 0 0 0 0 0 0 0 0 0 0 0 0 0 0 0 0 0 0 0 0 0 0 0 0 0 0 0 0 0 0 0 0 0 0 0 0 0 0
0 0 0 0 0 0 0 0 0 0 0 0 0 0 0 0 0 0 0 0 0 0 0 0 0 0 0 0 0 0 0 0 0 0 0 0 0 0 0 0 0 0 0 0
0 0 0 0 0 0 0 0 0 0 0 0 0 0 0 0 0 0 0 0 0 0 0 0 0 0 0 0 0 0 0 0 0 0 0 0 0 0 0 0 0 0 0 0
0 0 0 0 0 0 0 0 0 0 0 0 0 0 0 0 0 0 0 0 0 0 0 0 0 0 0 0 0 0 0 0 0 0 0 0 0 0 0 0 0 0 0 0
0 0 0 0 0 0 0 0 0 0 0 0 0 0 0 0 0 0 0 0 0 0 0 0 0 0 0 0 0 0 0 0 0 0 0 0 0 0 0 0 0 0 0 0
0 0 0 0 0 0 0 0 0 0 0 0 0 0 0 0 0 0 0 0 0 0 0 0 0 0 0 0 0 0 0 0 0 0 0 0 0 0 0 0 0 0 0 0
0 0 0 0 0 0 0 0 0 0 0 0 0 0 0 0 0 0 0 0 0 0 0 0 0 0 0 0 0 0 0 0 0 0 0 0 0 0 0 0 0 0 0 0
0 0 0 0 0 0 0 0 0 0 0 0 0 0 0 0 0 0 0 0 0 0 0 0 0 0 0 0 0 0 0 0 0 0 0 0 0 0 0 0 0 0 0 0
Wind_Speed
5 6 4 2 1 2 2 2 1 2 2 1 2 6 8 5 2 3 3 3 3 4 3 2 2 3 3 4 4 5 5 5 4 3 3 2 2 2 2 2 2 3 2 2
6 5 2 1 2 3 2 2 1 2 2 1 3 7 7 4 3 4 4 4 4 3 3 3 2 2 3 4 4 5 5 5 4 3 2 2 2 2 2 2 2 2 2 2
4 1 2 2 3 3 2 1 1 2 3 3 3 7 5 3 2 2 3 3 3 3 3 3 3 3 3 4 5 5 6 5 5 4 2 2 1 1 1 2 2 2 2 2
2 2 2 3 2 1 1 1 0 1 2 3 2 5 7 3 4 4 4 3 4 4 3 3 3 3 4 4 4 5 5 5 4 3 2 2 2 2 2 2 2 3 3 2
2 2 2 2 1 0 1 1 1 1 1 2 1 2 9 3 4 6 5 5 5 4 4 4 4 4 4 3 4 4 5 5 5 3 3 2 2 2 2 2 2 2 2 2
2 1 0 1 1 1 0 3 3 3 3 2 2 3 8 5 6 5 4 4 5 4 4 4 3 3 3 3 3 4 4 5 5 4 3 2 2 2 2 2 2 2 2 2
5 3 2 1 2 3 4 4 4 5 4 5 1 3 11 8 6 5 6 6 5 4 3 3 3 3 3 3 4 4 4 4 5 4 3 2 2 2 2 2 2 2 2 2
3 4 2 1 1 1 1 4 4 2 4 6 3 7 10 6 4 4 5 5 4 4 4 4 4 4 4 4 3 3 4 4 4 4 3 2 2 2 2 2 1 1 2 2
1 4 3 1 1 3 2 1 3 3 1 4 6 8 11 3 4 3 4 4 5 5 5 5 4 4 4 4 3 3 3 4 4 3 3 2 2 2 2 2 2 1 2 2
2 3 4 2 1 1 2 4 3 3 1 5 7 6 6 5 5 4 4 5 6 5 4 4 4 4 4 4 3 2 3 3 3 3 3 2 2 2 2 2 2 2 2 2
1 1 4 2 3 3 3 2 3 2 3 3 5 9 7 6 5 5 6 6 6 5 5 5 4 3 3 3 2 2 3 3 3 3 2 2 2 2 2 2 2 2 2 2
1 2 4 6 3 2 3 4 6 3 4 4 4 12 5 5 5 5 6 6 5 5 5 4 4 3 3 3 3 3 3 2 3 2 2 2 2 2 2 2 2 2 2 2
2 2 3 5 2 0 2 3 4 3 2 4 5 12 3 2 3 4 5 6 5 5 5 4 3 3 4 3 3 3 3 3 2 1 1 1 2 1 2 2 2 2 1 1
3 3 5 7 4 2 5 5 5 5 5 6 11 14 11 8 8 8 7 6 6 6 5 5 4 4 4 4 4 3 3 3 2 1 1 2 2 2 2 2 2 2 1 1
3 3 5 9 9 7 9 11 10 12 11 11 11 12 17 11 9 8 7 6 6 6 6 6 6 5 5 4 4 4 3 3 2 2 2 2 2 2 2 2 2 1 1 1
1 3 3 7 6 7 12 16 15 15 13 15 14 18 15 9 6 6 7 7 8 8 7 7 6 6 6 5 5 4 4 3 2 2 3 2 2 1 2 2 1 1 1 1
2 2 2 6 5 6 12 12 13 9 9 10 15 15 8 6 8 7 7 7 9 9 8 7 7 7 6 6 5 5 5 3 3 3 3 2 2 2 2 1 1 1 1 0
5 4 2 4 5 8 9 1 6 7 8 11 10 10 8 9 8 8 8 9 10 8 8 7 6 6 5 5 4 4 3 3 3 3 3 2 2 2 2 1 1 1 1 1
7 6 3 2 5 12 10 4 5 6 8 9 12 12 8 5 4 6 6 7 9 9 8 7 6 5 4 4 4 3 3 3 3 4 4 3 3 2 2 2 2 2 1 1
3 3 3 3 5 9 7 0 2 2 7 5 7 8 5 0 3 6 4 4 6 6 6 5 4 3 4 4 4 4 4 4 5 5 5 4 3 3 3 3 2 1 1 2
5 5 7 8 8 13 9 2 3 2 6 2 4 5 4 6 7 7 6 5 6 6 6 5 4 5 5 4 4 5 5 6 6 4 3 3 3 3 3 2 1 1 1 1
9 8 8 7 9 14 5 6 8 9 4 3 4 4 6 8 8 8 7 7 6 6 5 5 5 6 5 5 6 6 7 6 4 3 3 4 3 3 2 2 1 1 1 1
9 10 8 12 13 7 5 8 7 4 5 5 5 6 6 8 9 9 8 7 7 7 6 5 6 6 4 5 7 8 7 4 4 4 4 4 3 3 2 3 2 1 1 1
6 5 5 8 13 11 10 9 9 7 9 9 8 8 7 9 10 10 8 7 7 7 7 5 5 6 6 6 7 8 5 4 4 5 4 4 3 3 2 2 2 2 2 2
8 6 6 10 11 9 10 10 10 10 9 9 9 9 9 9 10 10 9 8 7 7 6 5 6 7 8 6 7 6 5 5 5 5 4 4 4 3 3 3 3 4 3 4
9 11 10 13 10 8 9 7 7 8 9 9 9 10 9 9 10 10 9 8 7 7 6 6 7 7 7 6 6 6 5 6 6 5 4 4 3 3 3 2 2 4 4 5
Wind_Direction
23 56 49 13 59 140 139 132 261 280 309 352 271 280 286 293 278 265 267 260 256 264 282 305 322 336 347 350 350 345 343 337 341 339 339 332 320 313 314 302 303 299 293 277
44 38 338 340 62 67 80 95 334 320 344 339 294 286 281 266 241 234 239 244 247 268 301 308 318 337 343 338 338 335 335 330 331 320 305 279 278 282 277 288 302 299 297 289
82 323 343 65 52 53 31 143 255 304 336 14 340 309 294 285 267 267 253 243 244 241 261 291 310 313 325 325 326 327 322 322 321 318 310 306 298 298 298 314 315 308 297 290
48 353 58 62 37 65 320 259 202 4 31 332 32 305 288 282 292 271 262 254 251 254 255 268 285 301 305 306 318 321 320 320 318 320 318 305 291 288 287 298 298 309 311 306
4 8 54 57 337 36 260 355 61 70 95 337 338 244 283 302 275 266 259 252 252 249 246 253 260 271 291 303 313 318 325 327 328 324 315 309 303 293 294 300 309 318 330 332
331 335 80 203 315 84 57 46 50 46 59 306 242 199 279 250 235 261 261 256 256 256 255 259 270 281 296 308 318 324 330 332 336 334 327 322 315 316 320 323 325 324 331 339
348 345 357 42 38 24 53 64 25 3 0 264 252 224 254 254 238 237 256 264 259 251 250 260 277 288 295 306 313 321 326 328 334 336 339 341 332 320 311 308 312 322 325 328
2 317 313 4 130 134 62 112 137 217 264 292 295 244 256 262 266 256 257 259 256 251 245 245 250 258 271 285 298 311 317 318 327 330 330 341 341 322 312 313 311 314 309 312
353 290 314 299 220 142 122 131 156 143 265 281 276 280 295 270 273 265 263 262 257 250 246 247 251 256 261 270 277 286 298 307 315 319 321 333 336 331 318 319 326 319 320 321
172 283 298 311 52 31 146 145 105 122 250 286 291 272 259 280 275 275 267 262 261 256 253 254 252 252 256 258 270 286 288 292 300 310 310 321 329 322 320 327 333 328 330 336
157 228 304 325 213 196 148 148 143 153 181 212 286 275 230 233 252 263 266 261 257 255 252 253 257 257 255 262 265 274 285 293 302 305 308 319 321 326 335 327 319 319 326 330
149 138 272 263 253 195 188 187 160 177 230 205 238 271 262 240 256 256 265 268 263 256 253 252 255 259 259 261 264 265 269 275 284 296 309 315 324 336 331 314 309 314 311 314
148 125 327 335 343 169 232 209 184 171 174 197 218 263 285 284 283 263 260 268 270 269 266 262 255 251 251 253 256 262 260 262 275 288 298 316 325 325 308 302 303 304 303 317
129 178 198 225 241 222 248 234 195 179 206 228 231 257 280 284 287 285 277 267 267 266 263 259 257 252 248 246 246 252 260 260 263 266 275 285 287 286 287 294 299 298 295 307
130 233 243 255 262 257 250 247 224 214 215 226 246 251 267 273 268 269 266 266 267 265 261 252 248 249 248 246 244 241 249 254 249 247 257 264 274 280 285 291 297 305 317 322
142 241 281 279 262 261 264 252 236 232 230 239 258 270 267 273 266 263 261 255 255 257 255 251 245 243 242 238 237 234 238 238 227 229 246 259 262 264 269 274 282 309 334 339
202 202 288 280 306 316 269 240 211 207 210 206 232 247 267 278 270 259 253 248 248 251 251 246 240 236 236 231 224 225 228 222 215 226 242 251 248 250 257 266 267 255 276 307
174 172 234 290 336 263 248 219 185 209 236 219 236 254 259 257 269 264 248 242 250 247 243 241 237 238 236 225 218 219 215 207 213 224 236 240 237 243 252 257 250 247 229 228
177 170 213 256 281 280 288 255 187 199 265 225 228 251 264 283 311 289 253 229 235 239 237 236 232 230 227 223 214 203 212 210 215 227 232 232 224 231 233 238 244 235 223 241
159 171 199 212 249 259 261 275 164 114 283 249 207 239 252 245 301 278 273 256 253 252 245 239 234 224 227 225 197 196 212 212 224 230 231 226 215 215 225 235 236 220 206 222
159 193 215 225 245 265 259 210 132 204 255 271 214 233 221 216 234 265 287 272 256 254 248 235 222 223 228 209 186 207 215 224 228 226 223 219 214 216 225 231 225 213 191 179
185 188 201 198 223 253 223 154 191 224 262 277 258 243 239 250 267 277 277 271 265 261 249 230 220 232 228 197 192 213 228 230 216 208 216 223 219 214 205 201 216 198 181 182
206 200 194 203 222 245 195 211 234 243 262 266 264 264 259 266 272 276 274 269 265 256 249 233 222 233 230 206 199 217 231 213 197 202 216 223 219 214 196 191 199 196 194 202
241 204 214 248 256 257 256 255 262 256 254 265 268 271 266 264 270 274 273 271 266 258 248 236 222 226 232 218 213 223 224 198 193 208 217 212 207 215 209 200 196 195 202 209
223 194 221 250 265 281 268 250 254 263 267 271 271 264 258 261 268 267 270 268 262 257 248 229 222 229 234 224 221 223 210 191 200 210 213 209 205 204 207 208 210 208 211 204
199 203 214 243 235 234 258 260 261 265 268 269 274 278 267 254 261 266 265 261 256 252 245 236 230 231 234 223 224 221 203 192 196 209 212 208 202 200 199 203 238 236 224 232